Regional Weather Roundup
Issued by NWS Kansas City/Pleasant Hill, MO

Home | Current Version | Previous Version | Graphics & Text | Print | Product List | Glossary Off
Versions: 1 2 3 4 5 6 7 8 9 10 11 12 13 14 15 16 17 18 19 20 21 22 23 24 25 26 27 28 29 30 31 32 33 34 35 36 37 38 39 40 41 42 43 44 45 46 47 48 49 50

000
ASUS43 KEAX 082010
RWREAX

WEATHER ROUNDUP FOR EASTERN KANSAS AND NORTHWEST MISSOURI
NATIONAL WEATHER SERVICE KANSAS CITY/PLEASANT HILL MO
200 PM CST THU DEC 08 2016

KSZ040-057-103>105-MOZ028-029-037-043-082100-
...KANSAS CITY METROPOLITAN AREA...

CITY           SKY/WX    TMP DP  RH WIND       PRES   REMARKS
K.C. INTL      MOSUNNY   25  10  53 W10G20    30.59F WCI  15
K.C. DOWNTOWN  SUNNY     26  11  52 W9G18     30.61F WCI  17
LEES SUMMIT    SUNNY     24  11  57 NW15      30.59S WCI  11
OLATHE - IXD   MOSUNNY   25  12  58 W13       30.61S WCI  14
OLATHE - OJC   SUNNY     24  10  55 NW14      30.60S WCI  12
LAWRENCE       MOSUNNY   26  14  60 NW10      30.63S WCI  16

$$

MOZ001>008-011>017-020>025-030>033-038>040-044>046-053-054-082100-
...NORTHERN AND CENTRAL MISSOURI...

CITY           SKY/WX    TMP DP  RH WIND       PRES   REMARKS
ST. JOSEPH     SUNNY     25   9  50 NW14      30.61S WCI  13
MOSBY          CLEAR     27  10  50 NW10G22   30.60S WCI  17
WARRENSBURG    SUNNY     27  12  54 W10G16    30.59S WCI  17
WHITEMAN AFB   MOSUNNY   26  12  54 NW13      30.56F WCI  15
CLINTON        SUNNY     28  14  54 NW13      30.59S WCI  18
SEDALIA        MOSUNNY   26  13  57 NW14G22   30.57S WCI  14
WARSAW         NOT AVBL
CHILLICOTHE      N/A     26  10  50 W10G18    30.57F WCI  16
KIRKSVILLE     SUNNY     25  10  53 NW17G23   30.50F WCI  12

$$

MOZ041-047>049-056>058-063>065-088>090-097-082100-
...EASTERN AND SOUTHERN MISSOURI...

CITY           SKY/WX    TMP DP  RH WIND       PRES   REMARKS
ST. LOUIS INTL MOSUNNY   30  11  45 W18G26    30.48F WCI  18
SPIRIT OF STL  MOSUNNY   30  13  49 NW14      30.49F WCI  19
COLUMBIA       SUNNY     27  11  51 W17       30.52F WCI  14
JEFFERSON CITY SUNNY     27  11  51 NW13G21   30.55S WCI  16
ROLLA          SUNNY     28  13  53 W13       30.48F WCI  17
OSAGE BEACH    SUNNY     32  15  49 W9        30.54F WCI  24
SPRINGFIELD    SUNNY     29  12  49 W12       30.55S WCI  19
BRANSON        PTSUNNY   28   9  43 NW12G18   30.55S WCI  18
JOPLIN         SUNNY     28  13  53 NW9G17    30.62F WCI  19
WEST PLAINS    SUNNY     32  10  40 NW12G22   30.50F WCI  23

$$

IAZ060-094-KSZ022-034>040-054-083-096-NEZ052-066-093-082100-
...KANSAS...SOUTHEAST NEBRASKA AND IOWA...

CITY           SKY/WX    TMP DP  RH WIND       PRES   REMARKS
TOPEKA         SUNNY     27  12  53 W13       30.64S WCI  16
MANHATTAN      SUNNY     27  10  49 W12G17    30.65F WCI  17
EMPORIA        SUNNY     26  13  57 NW15G21   30.63F WCI  14
CHANUTE        SUNNY     28  15  58 NW12      30.63F WCI  18
WICHITA        MOSUNNY   29   6  38 N14       30.64F WCI  18
OMAHA          MOSUNNY   24   8  50 NW15      30.59F WCI  11
LINCOLN        SUNNY     25   8  48 N16       30.62F WCI  12
FALLS CITY     SUNNY     24   9  52 NW15G24   30.61S WCI  11
LAMONI         SUNNY     24  10  55 NW20      30.52S WCI  10
DES MOINES     PTSUNNY   24  10  55 NW21G26   30.50S WCI   9

$$




USA.gov is the U.S. government's official web portal to all federal, state and local government web resources and services.